Radiation Dose at Monitoring Post of Fukushima Daini Nuclear Power Station
Date,Time,MP-1(microSv/h),MP-2(microSv/h),MP-3(microSv/h),MP-4(microSv/h),MP-5(microSv/h),MP-6(microSv/h),MP-7(microSv/h),Wind Direction,Wind Velocity(m/s),Rain
2017/03/20,00:00,0.389,0.235,0.399,0.367,0.333,0.195,0.164,west-northwest,4.4,No
2017/03/20,00:10,0.388,0.235,0.397,0.366,0.334,0.194,0.163,west-northwest,5.6,No
2017/03/20,00:20,0.387,0.235,0.398,0.367,0.333,0.194,0.165,west-northwest,4.7,No
2017/03/20,00:30,0.389,0.234,0.397,0.367,0.333,0.193,0.165,west-northwest,3.8,No
2017/03/20,00:40,0.387,0.234,0.398,0.366,0.334,0.193,0.164,west-northwest,5.4,No
2017/03/20,00:50,0.387,0.235,0.397,0.365,0.333,0.193,0.164,west-northwest,3.2,No
2017/03/20,01:00,0.387,0.234,0.397,0.368,0.332,0.193,0.164,west-northwest,2.9,No
2017/03/20,01:10,0.387,0.236,0.397,0.368,0.333,0.194,0.164,west-northwest,5.6,No
2017/03/20,01:20,0.389,0.235,0.400,0.368,0.332,0.193,0.164,west,6.9,No
2017/03/20,01:30,0.387,0.234,0.397,0.366,0.332,0.193,0.164,west,7.5,No
2017/03/20,01:40,0.388,0.234,0.397,0.368,0.333,0.193,0.165,west,6.7,No
2017/03/20,01:50,0.387,0.234,0.397,0.366,0.333,0.193,0.163,west,6.2,No
2017/03/20,02:00,0.388,0.234,0.398,0.367,0.333,0.193,0.165,west,3.9,No
2017/03/20,02:10,0.389,0.235,0.398,0.367,0.333,0.193,0.165,west,2.6,No
2017/03/20,02:20,0.387,0.234,0.397,0.366,0.332,0.194,0.164,northwest,1.0,No
2017/03/20,02:30,0.388,0.235,0.399,0.366,0.332,0.194,0.165,north-northwest,1.6,No
2017/03/20,02:40,0.389,0.235,0.398,0.367,0.333,0.194,0.163,north,0.8,No
2017/03/20,02:50,0.388,0.235,0.399,0.366,0.335,0.193,0.165,northeast,0.6,No
2017/03/20,03:00,0.389,0.235,0.399,0.366,0.333,0.193,0.164,north,1.4,No
2017/03/20,03:10,0.387,0.236,0.398,0.366,0.335,0.193,0.164,north-northeast,2.2,No
2017/03/20,03:20,0.386,0.234,0.398,0.367,0.334,0.193,0.164,north,2.0,No
2017/03/20,03:30,0.387,0.234,0.399,0.368,0.332,0.194,0.165,north-northeast,1.9,No
2017/03/20,03:40,0.388,0.234,0.398,0.366,0.333,0.194,0.165,north-northeast,1.2,No
2017/03/20,03:50,0.388,0.236,0.399,0.366,0.333,0.193,0.164,north-northeast,2.2,No
2017/03/20,04:00,0.389,0.234,0.397,0.366,0.334,0.194,0.164,north-northeast,2.5,No
2017/03/20,04:10,0.387,0.235,0.398,0.367,0.333,0.195,0.164,northeast,2.6,No
2017/03/20,04:20,0.388,0.235,0.397,0.367,0.332,0.194,0.165,northeast,3.4,No
2017/03/20,04:30,0.388,0.235,0.398,0.367,0.333,0.193,0.164,northeast,1.5,No
2017/03/20,04:40,0.388,0.237,0.399,0.366,0.333,0.193,0.163,northeast,2.4,No
2017/03/20,04:50,0.388,0.235,0.399,0.367,0.333,0.193,0.165,northeast,4.0,No
2017/03/20,05:00,0.387,0.235,0.397,0.368,0.332,0.193,0.164,north-northeast,2.8,No
2017/03/20,05:10,0.388,0.235,0.397,0.367,0.333,0.193,0.165,north-northeast,5.0,No
2017/03/20,05:20,0.388,0.235,0.397,0.365,0.333,0.194,0.164,north,5.3,No
2017/03/20,05:30,0.390,0.233,0.399,0.367,0.335,0.193,0.165,north-northwest,5.1,No
2017/03/20,05:40,0.388,0.235,0.398,0.366,0.334,0.194,0.164,northwest,4.5,No
2017/03/20,05:50,0.389,0.236,0.397,0.365,0.332,0.194,0.165,west-northwest,3.9,No
2017/03/20,06:00,0.388,0.234,0.397,0.367,0.333,0.194,0.165,northeast,1.7,No
2017/03/20,06:10,0.388,0.235,0.397,0.367,0.333,0.194,0.165,east-southeast,2.3,No
2017/03/20,06:20,0.390,0.234,0.399,0.368,0.334,0.194,0.164,southeast,2.0,No
2017/03/20,06:30,0.388,0.235,0.398,0.367,0.333,0.193,0.164,east,1.1,No
2017/03/20,06:40,0.388,0.235,0.398,0.368,0.332,0.193,0.165,-,CALM,No
2017/03/20,06:50,0.387,0.235,0.397,0.366,0.333,0.193,0.165,north-northeast,1.3,No
2017/03/20,07:00,0.388,0.234,0.398,0.366,0.333,0.194,0.164,north,1.1,No
2017/03/20,07:10,0.386,0.233,0.398,0.367,0.333,0.193,0.164,-,CALM,No
2017/03/20,07:20,0.387,0.233,0.399,0.366,0.333,0.194,0.164,-,CALM,No
2017/03/20,07:30,0.388,0.234,0.399,0.366,0.334,0.194,0.164,-,CALM,No
2017/03/20,07:40,0.388,0.235,0.399,0.368,0.332,0.194,0.165,south,1.5,No
2017/03/20,07:50,0.387,0.235,0.398,0.366,0.333,0.194,0.163,south,1.4,No
2017/03/20,08:00,0.388,0.235,0.398,0.365,0.334,0.193,0.164,south,2.0,No
2017/03/20,08:10,0.387,0.235,0.397,0.367,0.333,0.194,0.164,southwest,1.8,No
2017/03/20,08:20,0.388,0.233,0.397,0.363,0.332,0.193,0.165,west-northwest,3.4,No
2017/03/20,08:30,0.386,0.233,0.397,0.367,0.333,0.193,0.163,northwest,3.9,No
2017/03/20,08:40,0.386,0.233,0.398,0.365,0.333,0.192,0.163,north-northwest,3.4,No
2017/03/20,08:50,0.387,0.235,0.398,0.367,0.333,0.192,0.164,northwest,6.3,No
2017/03/20,09:00,0.385,0.234,0.396,0.364,0.334,0.192,0.163,north,2.5,No
2017/03/20,09:10,0.387,0.234,0.398,0.366,0.330,0.193,0.164,northeast,2.7,No
2017/03/20,09:20,0.386,0.234,0.398,0.362,0.334,0.193,0.163,east,3.5,No
2017/03/20,09:30,0.385,0.234,0.395,0.365,0.332,0.193,0.165,east-southeast,3.1,No
2017/03/20,09:40,0.386,0.234,0.399,0.364,0.334,0.194,0.164,east-southeast,4.0,No
2017/03/20,09:50,0.384,0.234,0.396,0.367,0.332,0.193,0.163,east,1.9,No
2017/03/20,10:00,0.385,0.234,0.396,0.366,0.333,0.192,0.164,east-southeast,2.0,No
2017/03/20,10:10,0.386,0.233,0.399,0.368,0.333,0.193,0.165,southeast,3.1,No
2017/03/20,10:20,0.386,0.235,0.396,0.365,0.332,0.193,0.164,east-southeast,4.2,No
2017/03/20,10:30,0.386,0.234,0.397,0.365,0.333,0.192,0.164,east-southeast,3.4,No
2017/03/20,10:40,0.385,0.235,0.398,0.364,0.332,0.192,0.164,east-southeast,2.8,No
2017/03/20,10:50,0.385,0.233,0.397,0.367,0.334,0.193,0.165,east-southeast,3.3,No
2017/03/20,11:00,0.385,0.236,0.397,0.366,0.333,0.193,0.163,southeast,2.0,No
2017/03/20,11:10,0.386,0.233,0.396,0.368,0.333,0.193,0.165,southeast,1.7,No
2017/03/20,11:20,0.385,0.234,0.396,0.367,0.332,0.192,0.164,southeast,3.3,No
2017/03/20,11:30,0.388,0.234,0.395,0.367,0.335,0.193,0.165,southeast,1.7,No
2017/03/20,11:40,0.384,0.235,0.394,0.367,0.331,0.193,0.164,southeast,2.4,No
2017/03/20,11:50,0.387,0.235,0.396,0.367,0.335,0.193,0.165,southeast,2.5,No
2017/03/20,12:00,0.387,0.235,0.397,0.369,0.331,0.193,0.164,southeast,1.5,No
2017/03/20,12:10,0.384,0.234,0.395,0.367,0.335,0.193,0.164,south-southeast,2.2,No
2017/03/20,12:20,0.386,0.234,0.397,0.369,0.333,0.193,0.165,south-southeast,2.4,No
2017/03/20,12:30,0.385,0.235,0.395,0.366,0.334,0.192,0.165,south-southeast,2.8,No
2017/03/20,12:40,0.388,0.233,0.397,0.368,0.331,0.193,0.163,southeast,3.3,No
2017/03/20,12:50,0.388,0.235,0.394,0.366,0.335,0.192,0.165,southeast,2.0,No
2017/03/20,13:00,0.387,0.234,0.399,0.370,0.331,0.193,0.164,southeast,2.3,No
2017/03/20,13:10,0.388,0.235,0.394,0.367,0.336,0.194,0.166,southeast,1.5,No
2017/03/20,13:20,0.385,0.234,0.397,0.368,0.332,0.192,0.165,east-southeast,2.5,No
2017/03/20,13:30,0.390,0.236,0.397,0.365,0.334,0.194,0.166,east-southeast,2.0,No
2017/03/20,13:40,0.385,0.235,0.393,0.370,0.333,0.195,0.164,southeast,2.8,No
2017/03/20,13:50,0.389,0.235,0.397,0.368,0.335,0.193,0.165,southeast,2.3,No
2017/03/20,14:00,0.384,0.235,0.395,0.370,0.333,0.193,0.164,southeast,2.1,No
2017/03/20,14:10,0.389,0.235,0.398,0.366,0.337,0.193,0.165,east-southeast,1.9,No
2017/03/20,14:20,0.387,0.234,0.394,0.368,0.332,0.194,0.164,southeast,1.6,No
2017/03/20,14:30,0.388,0.234,0.398,0.366,0.334,0.193,0.165,southeast,1.1,No
2017/03/20,14:40,0.386,0.235,0.396,0.368,0.333,0.194,0.164,southeast,1.7,No
2017/03/20,14:50,0.388,0.236,0.399,0.367,0.333,0.194,0.164,south-southeast,1.4,No
2017/03/20,15:00,0.387,0.236,0.397,0.368,0.332,0.193,0.165,south-southeast,1.4,No
2017/03/20,15:10,0.389,0.235,0.398,0.369,0.334,0.193,0.164,south-southeast,1.4,No
2017/03/20,15:20,0.385,0.234,0.399,0.368,0.334,0.194,0.165,south,1.6,No
2017/03/20,15:30,0.389,0.235,0.399,0.370,0.336,0.193,0.165,south,1.2,No
2017/03/20,15:40,0.385,0.235,0.399,0.369,0.334,0.194,0.165,south,2.3,No
2017/03/20,15:50,0.388,0.234,0.399,0.370,0.334,0.193,0.165,south-southeast,0.8,No
2017/03/20,16:00,0.387,0.236,0.400,0.370,0.334,0.193,0.167,south-southeast,1.2,No
2017/03/20,16:10,0.387,0.235,0.398,0.370,0.334,0.194,0.165,south,1.2,No
2017/03/20,16:20,0.389,0.236,0.399,0.368,0.334,0.193,0.166,south-southwest,1.7,No
2017/03/20,16:30,0.387,0.237,0.399,0.369,0.332,0.194,0.165,south-southwest,1.9,No
2017/03/20,16:40,0.389,0.235,0.399,0.368,0.335,0.193,0.165,south,2.5,No
2017/03/20,16:50,0.388,0.234,0.398,0.368,0.333,0.193,0.165,south-southwest,2.5,No
2017/03/20,17:00,0.387,0.235,0.400,0.371,0.334,0.194,0.165,south,0.8,No
2017/03/20,17:10,0.389,0.235,0.400,0.369,0.335,0.193,0.165,south,1.1,No
2017/03/20,17:20,0.388,0.234,0.396,0.368,0.333,0.195,0.166,south,2.7,No
2017/03/20,17:30,0.386,0.236,0.401,0.369,0.334,0.193,0.166,south,2.1,No
2017/03/20,17:40,0.389,0.237,0.397,0.367,0.335,0.193,0.166,south,2.5,No
2017/03/20,17:50,0.388,0.235,0.398,0.368,0.333,0.193,0.165,south,1.7,No
2017/03/20,18:00,0.388,0.235,0.399,0.369,0.336,0.194,0.165,southwest,0.7,No
2017/03/20,18:10,0.387,0.235,0.398,0.369,0.335,0.193,0.165,southwest,0.6,No
2017/03/20,18:20,0.390,0.235,0.399,0.369,0.334,0.195,0.165,west-southwest,1.0,No
2017/03/20,18:30,0.388,0.236,0.398,0.370,0.334,0.194,0.164,southwest,2.4,No
2017/03/20,18:40,0.389,0.236,0.398,0.369,0.335,0.193,0.165,south-southwest,2.0,No
2017/03/20,18:50,0.389,0.234,0.400,0.369,0.333,0.194,0.166,south-southwest,2.8,No
2017/03/20,19:00,0.388,0.234,0.398,0.368,0.333,0.193,0.165,south-southwest,2.1,No
2017/03/20,19:10,0.388,0.235,0.398,0.371,0.334,0.194,0.165,southwest,1.9,No
2017/03/20,19:20,0.390,0.235,0.399,0.370,0.334,0.195,0.165,south-southwest,3.4,No
2017/03/20,19:30,0.389,0.235,0.398,0.367,0.333,0.195,0.165,south-southwest,4.3,No
2017/03/20,19:40,0.386,0.235,0.398,0.369,0.334,0.195,0.165,south-southwest,4.7,No
2017/03/20,19:50,0.388,0.236,0.399,0.371,0.336,0.195,0.166,south-southwest,5.5,No
2017/03/20,20:00,0.390,0.235,0.400,0.369,0.335,0.194,0.165,south-southwest,5.7,No
2017/03/20,20:10,0.389,0.235,0.399,0.368,0.334,0.194,0.165,south-southwest,5.0,No
2017/03/20,20:20,0.388,0.235,0.399,0.371,0.335,0.195,0.165,south-southwest,7.3,No
2017/03/20,20:30,0.388,0.235,0.399,0.370,0.335,0.194,0.165,south-southwest,7.0,No
2017/03/20,20:40,0.389,0.234,0.399,0.369,0.334,0.195,0.166,south-southwest,6.4,No
2017/03/20,20:50,0.388,0.236,0.399,0.369,0.334,0.194,0.165,south-southwest,6.3,No
2017/03/20,21:00,0.388,0.235,0.399,0.370,0.335,0.194,0.165,south-southwest,6.1,No
2017/03/20,21:10,0.389,0.235,0.400,0.369,0.334,0.194,0.166,south-southwest,6.2,No
2017/03/20,21:20,0.390,0.235,0.400,0.367,0.334,0.194,0.165,south-southwest,6.5,No
2017/03/20,21:30,0.388,0.236,0.401,0.370,0.334,0.194,0.165,south-southwest,6.5,No
2017/03/20,21:40,0.388,0.234,0.399,0.370,0.335,0.194,0.166,south-southwest,7.4,No
2017/03/20,21:50,0.390,0.235,0.401,0.368,0.334,0.194,0.167,south-southwest,7.3,No
2017/03/20,22:00,0.388,0.235,0.401,0.370,0.334,0.194,0.164,southwest,7.3,No
2017/03/20,22:10,0.387,0.235,0.400,0.371,0.335,0.195,0.165,southwest,5.5,No
2017/03/20,22:20,0.389,0.236,0.399,0.369,0.335,0.193,0.166,west-southwest,5.3,No
2017/03/20,22:30,0.388,0.235,0.400,0.368,0.333,0.194,0.165,southwest,5.5,No
2017/03/20,22:40,0.389,0.235,0.400,0.369,0.334,0.194,0.165,southwest,4.4,No
2017/03/20,22:50,0.388,0.235,0.400,0.371,0.335,0.194,0.166,south-southwest,4.0,No
2017/03/20,23:00,0.389,0.236,0.399,0.369,0.334,0.194,0.165,south-southwest,3.1,No
2017/03/20,23:10,0.388,0.235,0.399,0.368,0.335,0.194,0.166,south-southwest,2.7,No
2017/03/20,23:20,0.388,0.235,0.400,0.368,0.334,0.193,0.166,south-southwest,2.9,No
2017/03/20,23:30,0.388,0.235,0.399,0.370,0.335,0.194,0.166,south-southwest,2.4,No
2017/03/20,23:40,0.390,0.235,0.397,0.368,0.333,0.194,0.166,south-southwest,2.9,No
2017/03/20,23:50,0.390,0.236,0.398,0.369,0.334,0.195,0.166,south-southwest,3.2,No
